This is the latest recevied weather packets stored in our database for station/object N0THY. If no packets are shown the sender has not sent any weather packets the latest 10 day(s).
| Time | Temp. | Humidity | Pressure | Rain* | Wind** | Luminosity | Snow |
|---|---|---|---|---|---|---|---|
| 1788156405 | 58° F | 87% | 767.4 mmHg | 0.64 in | - | - | - |
| 1788155502 | 58° F | 87% | 767.3 mmHg | 0.64 in | - | - | - |
| 1788154599 | 59° F | 87% | 767.5 mmHg | 0.64 in | - | - | - |
| 1788153696 | 59° F | 88% | 767.5 mmHg | 0.64 in | - | - | - |
| 1788152793 | 59° F | 88% | 767.5 mmHg | 0.64 in | - | - | - |
| 1788151890 | 59° F | 88% | 767.6 mmHg | 0.64 in | - | - | - |
| 1788150987 | 59° F | 88% | 767.8 mmHg | 0.64 in | - | - | - |
| 1788150084 | 59° F | 89% | 767.8 mmHg | 0.64 in | - | - | - |
| 1788148278 | 58° F | 89% | 767.8 mmHg | 0.64 in | - | - | - |
| 1788147425 | 58° F | 89% | 767.8 mmHg | 0.64 in | - | - | - |
| 1788147375 | 58° F | 89% | 767.8 mmHg | 0.64 in | - | - | - |
| 1788146472 | 58° F | 89% | 767.8 mmHg | 0.64 in | - | - | - |
| 1788145570 | 58° F | 88% | 767.7 mmHg | 0.64 in | - | - | - |
| 1788144667 | 58° F | 89% | 767.8 mmHg | 0.64 in | - | - | - |
| 1788143763 | 58° F | 90% | 767.4 mmHg | 0.64 in | - | - | - |
| 1788142860 | 58° F | 88% | 767.3 mmHg | 0.64 in | - | - | - |
| 1788141957 | 58° F | 86% | 767.2 mmHg | 0.64 in | - | - | - |
| 1788141054 | 58° F | 82% | 767.3 mmHg | 0.64 in | - | - | - |
| 1788140151 | 58° F | 78% | 767.8 mmHg | 0.61 in | - | - | - |
| 1788139248 | 62° F | 66% | 767.8 mmHg | 0.47 in | - | - | - |
| 1788138345 | 68° F | 55% | 766.2 mmHg | 0.29 in | - | - | - |
| 1788137442 | 69° F | 54% | 765.4 mmHg | 0.29 in | - | - | - |
| 1788136539 | 69° F | 54% | 765.3 mmHg | 0.29 in | - | - | - |
| 1788135636 | 70° F | 53% | 765.3 mmHg | 0.29 in | - | - | - |
| 1788134733 | 71° F | 50% | 765.3 mmHg | 0.29 in | - | - | - |
* Rain since midnight (hover to see other rain measurements)
** Current wind speed in m/s (hover to see current wind gust speed)